[[{"header":{"parameterUnit":"m.s-1","parameterCategory":1,"la1":30.2991,"la2":30.254,"lo1":-89.0895,"lo2":-89.0444,"dy":0.0017,"dx":0.0017,"nx":28,"ny":28,"refTime":"2025-04-12T21:00:00:Z","depth":0,"parameterNumber":2,"parameterNumberName":"U-component_of_WINDS"},"data":[0,0,0,0,0,0,0,0,0,0,0,0,0,0,0,0,0,0,0,0,0,0,0,0,0,0,0,0,0,0,0,0,0,0,0,0,0,0,0,0,0,0,0,0,0,0,0,0,0,0,0,0,0,0,0,0,0,0,3.3785,3.3786,0,3.3882,3.3883,3.3884,3.3855,3.3853,3.3851,3.3849,3.3945,3.3949,3.3953,0,0,0,0,0,0,0,0,0,0,0,0,0,3.3566,3.357,3.3784,3.3786,3.3787,3.3882,3.3883,3.3885,3.3855,3.3853,3.385,3.3848,3.3943,3.3948,3.3954,0,0,0,0,0,0,0,0,0,0,0,0,0,3.3662,3.3571,3.3784,3.3784,3.3785,3.3882,3.3883,3.3885,3.3856,3.3853,3.385,3.3847,3.3941,3.3948,3.3954,3.4057,0,0,3.3975,3.3978,0,0,0,0,0,0,0,0,3.3656,3.367,3.3783,3.3784,3.3785,3.3853,3.3841,3.3942,3.3857,3.3829,3.3849,3.3845,3.3916,3.3925,3.395,3.4061,3.4065,3.3975,3.3979,3.3982,3.3984,0,0,0,0,0,0,0,3.365,3.3665,3.3823,3.3784,3.3786,3.3776,3.3787,3.386,3.3888,3.3831,3.3829,3.3841,3.3917,3.3944,3.3952,3.4067,3.3975,3.3981,3.3985,3.3988,3.4261,3.4264,0,0,0,0,0,0,3.3643,3.366,3.382,3.3826,3.3712,3.3783,3.3794,3.3835,3.3887,3.3893,3.3844,3.3839,3.3934,3.3944,3.3955,3.4074,3.3982,3.3989,3.3992,3.4258,3.4262,3.4265,0,0,0,0,0,0,3.3638,3.3657,3.3816,3.3743,3.3762,3.379,3.3835,3.3838,3.3865,3.3897,3.3901,3.3867,3.3932,3.3946,3.4031,3.4077,3.3992,3.3998,3.4254,3.4259,3.4264,3.4316,0,0,0,0,0,0,3.3632,3.3656,3.3697,3.3744,3.3766,3.3892,3.3838,3.3842,3.3877,3.3872,3.392,3.3925,3.393,3.4021,3.4037,3.4085,3.4003,3.425,3.4256,3.4262,3.431,3.4322,3.4332,0,0,0,0,0,3.3624,3.3708,3.3699,3.3719,3.3818,3.3895,3.3907,3.3914,3.3881,3.3921,3.3941,3.3923,3.407,3.403,3.4048,3.4098,3.4247,3.4254,3.4261,3.4305,3.432,3.4332,0,0,0,0,0,0,3.3665,3.3714,3.3705,3.3806,3.3847,3.389,3.394,3.393,3.3979,3.3972,3.3977,3.3987,3.4074,3.4095,3.4049,3.4197,3.4153,3.4165,3.418,3.4194,3.4205,3.4197,3.4008,0,0,0,0,0,3.3686,3.3746,3.3785,3.3871,3.3891,3.3913,3.3946,3.3947,3.3989,3.4005,3.4032,3.4071,3.4126,3.4162,3.4214,3.4314,3.4321,3.4357,3.4368,3.4377,3.4386,3.4435,3.445,3.4289,3.4289,3.4289,0,0,3.3729,3.3763,3.3801,3.3879,3.3911,3.397,3.3927,3.3993,3.4036,3.4015,3.4096,3.4117,3.4161,3.4252,3.4294,3.4272,3.4432,3.4386,3.4393,3.4397,3.4444,3.4459,3.4473,3.4294,3.4293,3.4293,0,0,3.3838,3.3872,3.3944,3.3977,3.4025,3.4038,3.4055,3.41,3.4113,3.4195,3.4179,3.4229,3.4325,3.4355,3.4383,3.4501,3.4485,3.4518,3.4574,3.4623,3.4635,3.4646,3.4684,3.4698,3.4527,3.4527,3.4527,0,3.3885,3.3976,3.3983,3.4049,3.4082,3.4067,3.4138,3.4169,3.4231,3.4253,3.4229,3.4346,3.4375,3.4471,3.4499,3.4524,3.4541,3.4511,3.4633,3.4645,3.4655,3.4691,3.4706,3.4531,3.453,3.453,3.453,0,3.4029,3.4092,3.4145,3.4206,3.4245,3.4314,3.4329,3.4367,3.4365,3.4379,3.446,3.4494,3.4551,3.4575,3.4573,3.467,3.4655,3.4632,3.4587,3.4674,3.4707,3.4722,3.4536,3.4534,3.4533,3.4532,0,0,3.4165,3.4228,3.4247,3.4272,3.4324,3.4371,3.4438,3.4495,3.4525,3.4569,3.4622,3.4702,3.468,3.4712,3.4713,3.4756,3.4842,3.4728,3.4729,3.4744,3.4945,3.4959,3.4976,3.4833,3.4835,3.4837,3.494,0,3.4275,3.4394,3.4401,3.4507,3.4562,3.4548,3.4605,3.4641,3.4656,3.4704,3.472,3.4775,3.4745,3.4763,3.4805,3.4823,3.4881,3.4816,3.4878,3.488,3.4864,3.4994,3.501,3.5105,3.4954,3.4956,3.4958,0,3.4419,3.4466,3.4578,3.4618,3.4642,3.4693,3.4744,3.4791,3.483,3.4838,3.4872,3.4867,3.4931,3.4886,3.4973,3.4928,3.4954,3.4966,3.497,3.4973,3.4922,3.4997,3.5136,3.5149,3.4979,3.4978,3.4976,0,3.4502,3.4594,3.4672,3.4695,3.4744,3.478,3.4802,3.4838,3.4871,3.4915,3.4935,3.4985,3.5012,3.505,3.5057,3.5024,3.5142,3.5099,3.5147,3.5147,3.5171,3.5168,3.5312,3.5194,3.5193,3.5193,3.5193,0,3.4622,3.469,3.4709,3.4756,3.4831,3.4837,3.491,3.4929,3.4961,3.501,3.5001,3.5046,3.5054,3.51,3.5106,3.5175,3.5188,3.5193,3.5193,3.5192,3.5191,3.5207,3.5199,3.5197,3.5196,3.5195,3.5195,0,3.4726,3.4743,3.4825,3.4865,3.4877,3.4929,3.4962,3.5006,3.5019,3.5081,3.5095,3.5116,3.517,3.5181,3.5245,3.5249,3.5329,3.5324,3.5316,3.5314,3.536,3.5354,3.5517,3.5536,3.5408,3.5409,3.541,0,3.48,3.4851,3.4897,3.4929,3.4953,3.5005,3.5038,3.5046,3.508,3.5126,3.5164,3.5217,3.5259,3.5345,3.5364,3.5412,3.5406,3.5459,3.5412,3.5408,3.5401,3.5397,3.54,3.5467,3.5468,3.547,3.547,0,3.4927,3.4932,3.4981,3.5031,3.5071,3.5111,3.5149,3.5175,3.5187,3.5225,3.5281,3.5314,3.5378,3.5429,3.5476,3.5496,3.5484,3.5485,3.5498,3.5496,3.5487,3.5488,3.5336,3.5481,3.548,3.5479,3.5479,3.5478,3.5016,3.5059,3.5097,3.515,3.518,3.5215,3.5257,3.5276,3.5322,3.5376,3.5377,3.5436,3.547,3.5533,3.5555,3.5599,3.5582,3.5602,3.5606,3.561,3.5612,3.5483,3.5609,3.5608,3.5608,3.5608,3.5608,0,3.5139,3.5163,3.5212,3.5265,3.5305,3.5293,3.5333,3.5368,3.542,3.5454,3.5496,3.5557,3.5606,3.5628,3.5676,3.5706,3.5702,3.5718,3.5714,3.5718,3.5627,3.5609,3.5721,3.5721,3.5721,3.5721,3.5721,3.5721,3.5208,3.528,3.5289,3.5374,3.5396,3.5455,3.5478,3.5509,3.5536,3.5605,3.5646,3.5661,3.5689,3.5738,3.5781,3.5786,3.5802,3.582,3.5823,3.5737,3.5725,3.5714,3.5697,3.5825,3.5825,3.5909,3.591,3.591]},{"header":{"parameterUnit":"m.s-1","parameterCategory":1,"la1":30.2991,"la2":30.254,"lo1":-89.0895,"lo2":-89.0444,"dy":0.0017,"dx":0.0017,"nx":28,"ny":28,"refTime":"2025-04-12T21:00:00:Z","depth":0,"parameterNumber":3,"parameterNumberName":"V-component_of_WINDS"},"data":[0,0,0,0,0,0,0,0,0,0,0,0,0,0,0,0,0,0,0,0,0,0,0,0,0,0,0,0,0,0,0,0,0,0,0,0,0,0,0,0,0,0,0,0,0,0,0,0,0,0,0,0,0,0,0,0,0,0,4.3764,4.3764,0,4.3839,4.384,4.3841,4.3798,4.3796,4.3794,4.3792,4.3866,4.387,4.3874,0,0,0,0,0,0,0,0,0,0,0,0,0,4.3576,4.358,4.3764,4.3765,4.3765,4.3839,4.384,4.3841,4.3799,4.3796,4.3793,4.3791,4.3865,4.3869,4.3874,0,0,0,0,0,0,0,0,0,0,0,0,0,4.3655,4.3581,4.3763,4.3753,4.3753,4.3839,4.384,4.3842,4.3799,4.3796,4.3793,4.379,4.3863,4.3869,4.3875,4.3974,0,0,4.3893,4.3895,0,0,0,0,0,0,0,0,4.3651,4.3662,4.3754,4.3754,4.3754,4.3806,4.3801,4.3886,4.38,4.3782,4.3792,4.3788,4.3848,4.3855,4.3876,4.3977,4.3981,4.3893,4.3897,4.3899,4.3901,0,0,0,0,0,0,0,4.3645,4.3658,4.3793,4.3755,4.3755,4.3743,4.3751,4.3817,4.3832,4.3783,4.378,4.379,4.3848,4.3871,4.3878,4.3982,4.3893,4.3898,4.3902,4.3904,4.4164,4.4167,0,0,0,0,0,0,4.3641,4.3654,4.3791,4.3796,4.3694,4.3749,4.3757,4.3793,4.3831,4.3834,4.3792,4.3787,4.3862,4.3871,4.388,4.3996,4.3899,4.3905,4.3908,4.4161,4.4165,4.4168,0,0,0,0,0,0,4.3637,4.3654,4.3788,4.3724,4.374,4.3755,4.3795,4.3796,4.3819,4.3838,4.384,4.3813,4.386,4.3872,4.395,4.3998,4.3907,4.3913,4.4157,4.4162,4.4166,4.4231,0,0,0,0,0,0,4.3632,4.3653,4.3692,4.3725,4.3744,4.3859,4.3798,4.3799,4.3829,4.3824,4.3858,4.3861,4.3859,4.3942,4.3956,4.4005,4.3917,4.4152,4.4159,4.4165,4.4225,4.4238,4.4249,0,0,0,0,0,4.3626,4.3707,4.3694,4.3711,4.3794,4.3862,4.3872,4.3869,4.3834,4.3872,4.3884,4.386,4.3991,4.395,4.3966,4.4017,4.4149,4.4157,4.4164,4.422,4.4235,4.4249,0,0,0,0,0,0,4.3679,4.3712,4.3698,4.3793,4.3825,4.3855,4.3903,4.3886,4.3928,4.3921,4.3914,4.3922,4.4003,4.4018,4.3972,4.4113,4.4064,4.4075,4.4101,4.4116,4.4128,4.4122,4.3922,0,0,0,0,0,4.3702,4.3756,4.3781,4.3863,4.388,4.3889,4.3918,4.3913,4.3945,4.3958,4.3976,4.4007,4.4054,4.4086,4.4132,4.4227,4.4232,4.427,4.4282,4.4291,4.4301,4.4349,4.4365,4.4193,4.4193,4.4193,0,0,4.375,4.3774,4.3809,4.3874,4.3898,4.3952,4.3901,4.3961,4.3999,4.3967,4.4042,4.4056,4.4089,4.4176,4.4215,4.4191,4.4349,4.4301,4.4309,4.4313,4.4358,4.4375,4.4389,4.4198,4.4197,4.4197,0,0,4.3864,4.389,4.3959,4.3984,4.4021,4.4026,4.4043,4.4074,4.4082,4.4157,4.4133,4.4178,4.4262,4.4286,4.4309,4.4429,4.4408,4.4444,4.4507,4.4554,4.4568,4.458,4.462,4.4635,4.4454,4.4454,4.4454,0,4.3919,4.4001,4.3997,4.4058,4.4085,4.4059,4.4127,4.4151,4.4201,4.4219,4.4192,4.4294,4.4315,4.4405,4.4434,4.4455,4.4471,4.444,4.4566,4.4578,4.4589,4.4628,4.4643,4.4458,4.4458,4.4457,4.4457,0,4.4064,4.4121,4.4172,4.4221,4.4255,4.432,4.4323,4.4357,4.4348,4.4355,4.443,4.4454,4.4502,4.4523,4.4515,4.4612,4.4595,4.4567,4.4518,4.461,4.4645,4.466,4.4464,4.4462,4.4461,4.446,0,0,4.4216,4.426,4.4278,4.4299,4.4336,4.4379,4.4441,4.4489,4.4517,4.4551,4.4601,4.4671,4.4645,4.4671,4.4665,4.4707,4.4797,4.4673,4.4674,4.4693,4.4901,4.492,4.4938,4.4783,4.4786,4.4788,4.4897,0,4.4331,4.4441,4.4437,4.4538,4.4588,4.4562,4.4615,4.4643,4.4651,4.4693,4.4701,4.475,4.4713,4.4728,4.4768,4.4777,4.4838,4.477,4.4827,4.4829,4.4818,4.4957,4.4978,4.5081,4.4911,4.4914,4.4916,0,4.4481,4.452,4.4626,4.4653,4.4674,4.4722,4.4764,4.4806,4.4835,4.4837,4.4866,4.4852,4.4912,4.4861,4.4942,4.4895,4.4918,4.4926,4.493,4.4934,4.4877,4.4963,4.5113,4.5128,4.4938,4.4936,4.4935,0,4.4577,4.4657,4.4729,4.4748,4.4782,4.4816,4.4832,4.4858,4.4886,4.4922,4.4939,4.4981,4.5004,4.5036,4.5033,4.4997,4.5114,4.5064,4.5116,4.5116,4.5141,4.5139,4.5295,4.5159,4.5158,4.5158,4.5158,0,4.4705,4.4771,4.4773,4.4818,4.4889,4.4883,4.4953,4.4965,4.4988,4.5032,4.5012,4.5054,4.5049,4.509,4.5088,4.5153,4.5164,4.5166,4.5164,4.5167,4.5167,4.5181,4.5173,4.5162,4.5161,4.516,4.516,0,4.4826,4.483,4.4907,4.4933,4.494,4.4992,4.5012,4.5053,4.5058,4.5115,4.5128,4.5136,4.5183,4.5183,4.5238,4.5236,4.5315,4.5307,4.5306,4.5303,4.5354,4.5349,4.5524,4.5546,4.5397,4.5398,4.5399,0,4.4906,4.4956,4.4986,4.5015,4.5032,4.5079,4.5107,4.5102,4.5132,4.5167,4.5203,4.5249,4.5285,4.5361,4.5371,4.5411,4.5402,4.5461,4.5408,4.5408,4.54,4.5397,4.54,4.5471,4.5472,4.5474,4.5475,0,4.5048,4.5047,4.5089,4.5131,4.5165,4.5198,4.5228,4.5252,4.525,4.5284,4.5332,4.536,4.5415,4.5459,4.5498,4.5511,4.5492,4.5491,4.5505,4.5507,4.5504,4.5504,4.5332,4.5487,4.5486,4.5485,4.5484,4.5484,4.515,4.5191,4.5218,4.5264,4.5286,4.5314,4.5353,4.5363,4.5403,4.5448,4.5442,4.5495,4.552,4.557,4.5587,4.5627,4.5606,4.5626,4.5631,4.5636,4.564,4.5499,4.5634,4.5634,4.5633,4.5633,4.5633,0,4.5289,4.5304,4.5347,4.5389,4.5425,4.5404,4.5435,4.5466,4.5513,4.5538,4.5574,4.5628,4.567,4.5682,4.5722,4.5752,4.5744,4.5762,4.5759,4.5762,4.5658,4.5641,4.5768,4.5768,4.5768,4.5768,4.5768,4.5768,4.5365,4.5433,4.5435,4.5512,4.5527,4.5579,4.5599,4.5623,4.5643,4.5704,4.5739,4.5747,4.5766,4.5807,4.5844,4.5846,4.5861,4.5883,4.5881,4.5783,4.577,4.5757,4.5741,4.5887,4.5887,4.5982,4.5983,4.5983]}]]